Погода в Старых Дорогах

Беларусь     53°02′21″N   28°15′54″E
темп.,
°C
ветер,
м/с
пор.,
м/с
влажн.,
%
обл.,
%
осадки,
мм/ч
давл.,
гПа
погр.,
м
29 июня, ср
ср2900:00+22зюз2382100 1.1 101954
03:00+19всв259733 2.1 1019104
06:00+20ююв229386 0.0 101842
09:00+25юв127136 0.1 1018350
12:00+30ююз124738 1.1 10171388
15:00+31з234256 1.1 10162279
18:00+29с345017 0.1 10151176
21:00+19ююв61097100 23.3 1016382
30 июня, чт
чт3000:00+18з119715 0.6 101623
03:00+16ссв2299100 0.6 101766
06:00+16всв269818 0.0 1017171
09:00+20в358220 0.0 1017454
12:00+26в45587 0.0 10171210
15:00+27вюв4452100 0.0 10171700
18:00+26в3457100 0.0 10171506
21:00+21в3682100 0.0 1018148
1 июля, пт
пт100:00+18в388787 0.0 1019175
03:00+16вюв23900 0.0 102066
06:00+16в24870 0.0 102181
09:00+22в23613 0.0 1021451
12:00+26в45425 0.0 10211518
15:00+27вюв34385 0.0 10201865
18:00+26в33430 0.0 10201684
21:00+20вюв36720 0.0 102099
2 июля, сб
сб200:00+17юв237462 0.0 102164
03:00+15вюв22764 0.0 102242
06:00+16юв24805 0.0 102268
09:00+22юв24615 0.0 1022370
12:00+27ю334742 0.0 10211432
15:00+28ююз23395 0.0 10211973
18:00+28ююз12390 0.0 10201906
21:00+22вюв22710 0.0 102019
3 июля, вс
вс300:00+19ююв35705 0.0 102084
03:00+17ю36790 0.0 101994
06:00+17ююз238269 0.0 101952
09:00+23юз237149 0.0 1018441
12:00+26юз346337 0.0 10181257
15:00+24зюз457072 1.4 10181001
18:00+22з567477 0.1 1017931
21:00+18з369149 0.2 1017261